Jackson, MN

9:45 AM CDT on March 27, 2017 (GMT -0500)
Jackson Municipal

Weather History for KMJQ - July, 2013

Change the Weather History Date:

Wednesday, July 3, 2013

  Actual Average Record
Temperature  
Mean Temperature 71 °F -  
Max Temperature 82 °F 79 °F 93 °F (2012)
Min Temperature 60 °F 59 °F 50 °F (2014)
Cooling Degree Days 6    
Growing Degree Days 21 (Base 50)    
Moisture  
Dew Point 51 °F    
Average Humidity 50    
Maximum Humidity 82    
Minimum Humidity 26    
Precipitation  
Precipitation 0.00 in - - ()
Sea Level Pressure  
Sea Level Pressure 30.04 in    
Wind  
Wind Speed 2 mph (SE)    
Max Wind Speed 8 mph    
Max Gust Speed 16 mph    
Visibility 10 miles    
Events      
Averages and records for this station are not official NWS values.
T = Trace of Precipitation, MM = Missing Value Source: NWS Daily Summary

Daily Weather History Graph

Daily Weather History Graph

Search for Another Location

Airport or City:

Trip Planner

Search our weather history database for the weather conditions in past years. The results will help you decide how hot, cold, wet, or windy it might be!

Date:

Astronomy

Jul. 03, 2013 Rise Set
Actual Time 5:43 AM CDT 9:04 PM CDT
Civil Twilight 5:07 AM CDT 9:40 PM CDT
Nautical Twilight 4:21 AM CDT 10:26 PM CDT
Astronomical Twilight 3:23 AM CDT 11:24 PM CDT
Moon 2:26 AM CDT (7/3) 5:13 PM CDT (7/3)
Length of Visible Light 16h 32m
Length of Day
15h 21m
Waning Crescent, 18% of the Moon is Illuminated
Jul 3
Waning Crescent
Jul 8
New
Jul 15
First Quarter
Jul 22
Full
Jul 29
Last Quarter

Hourly Weather History & Observations

Time (CDT) Temp. Dew Point Humidity Pressure Visibility Wind Dir Wind Speed Gust Speed Precip Events Conditions
12:14 AM 66.2 °F 53.6 °F 64% 30.10 in 10.0 mi Calm Calm - N/A   Clear
12:33 AM 64.4 °F 53.6 °F 68% 30.10 in 10.0 mi Calm Calm - N/A   Clear
12:54 AM 62.6 °F 53.6 °F 72% 30.10 in 10.0 mi Calm Calm - N/A   Clear
1:14 AM 64.4 °F 55.4 °F 73% 30.10 in 10.0 mi Calm Calm - N/A   Clear
1:33 AM 64.4 °F 55.4 °F 73% 30.09 in 10.0 mi Calm Calm - N/A   Clear
1:54 AM 64.4 °F 53.6 °F 68% 30.09 in 10.0 mi Calm Calm - N/A   Clear
2:14 AM 64.4 °F 53.6 °F 68% 30.09 in 10.0 mi Calm Calm - N/A   Clear
2:34 AM 60.8 °F 53.6 °F 77% 30.08 in 10.0 mi Calm Calm - N/A   Scattered Clouds
2:54 AM 60.8 °F 53.6 °F 77% 30.08 in 10.0 mi Calm Calm - N/A   Scattered Clouds
3:12 AM 60.8 °F 53.6 °F 77% 30.07 in 10.0 mi Calm Calm - N/A   Scattered Clouds
3:34 AM 60.8 °F 53.6 °F 77% 30.07 in 10.0 mi Calm Calm - N/A   Scattered Clouds
3:53 AM 60.8 °F 55.4 °F 82% 30.07 in 10.0 mi Calm Calm - N/A   Scattered Clouds
4:14 AM 62.6 °F 55.4 °F 77% 30.07 in 10.0 mi Calm Calm - N/A   Scattered Clouds
4:34 AM 60.8 °F 53.6 °F 77% 30.07 in 10.0 mi Calm Calm - N/A   Scattered Clouds
4:53 AM 60.8 °F 55.4 °F 82% 30.07 in 10.0 mi Calm Calm - N/A   Scattered Clouds
5:14 AM 60.8 °F 55.4 °F 82% 30.07 in 10.0 mi Calm Calm - N/A   Scattered Clouds
5:33 AM 60.8 °F 53.6 °F 77% 30.06 in 10.0 mi Calm Calm - N/A   Clear
5:54 AM 60.8 °F 53.6 °F 77% 30.07 in 10.0 mi Calm Calm - N/A   Clear
6:14 AM 62.6 °F 53.6 °F 72% 30.07 in 10.0 mi East 3.5 mph - N/A   Scattered Clouds
6:33 AM 62.6 °F 53.6 °F 72% 30.08 in 10.0 mi Calm Calm - N/A   Scattered Clouds
6:54 AM 64.4 °F 53.6 °F 68% 30.08 in 10.0 mi Calm Calm - N/A   Scattered Clouds
7:14 AM 66.2 °F 55.4 °F 68% 30.08 in 10.0 mi ESE 3.5 mph - N/A   Scattered Clouds
7:34 AM 68.0 °F 55.4 °F 64% 30.08 in 10.0 mi Calm Calm - N/A   Clear
7:54 AM 69.8 °F 55.4 °F 60% 30.08 in 10.0 mi Calm Calm - N/A   Scattered Clouds
8:14 AM 69.8 °F 53.6 °F 56% 30.09 in 10.0 mi South 3.5 mph - N/A   Scattered Clouds
8:34 AM 71.6 °F 51.8 °F 50% 30.09 in 10.0 mi SSW 4.6 mph - N/A   Clear
8:54 AM 73.4 °F 51.8 °F 47% 30.09 in 10.0 mi SW 3.5 mph - N/A   Clear
9:14 AM 73.4 °F 51.8 °F 47% 30.09 in 10.0 mi South 3.5 mph - N/A   Scattered Clouds
9:34 AM 73.4 °F 50.0 °F 44% 30.09 in 10.0 mi Calm Calm - N/A   Clear
9:54 AM 75.2 °F 50.0 °F 41% 30.08 in 10.0 mi SSW 3.5 mph - N/A   Clear
10:14 AM 75.2 °F 50.0 °F 41% 30.08 in 10.0 mi South 3.5 mph - N/A   Clear
10:34 AM 77.0 °F 50.0 °F 39% 30.07 in 10.0 mi Calm Calm - N/A   Clear
10:54 AM 77.0 °F 50.0 °F 39% 30.07 in 10.0 mi SE 3.5 mph - N/A   Clear
11:14 AM 78.8 °F 50.0 °F 36% 30.07 in 10.0 mi SW 4.6 mph - N/A   Clear
11:33 AM 78.8 °F 50.0 °F 36% 30.07 in 10.0 mi South 4.6 mph - N/A   Scattered Clouds
11:54 AM 78.8 °F 50.0 °F 36% 30.07 in 10.0 mi Calm Calm - N/A   Mostly Cloudy
12:13 PM 78.8 °F 48.2 °F 34% 30.06 in 10.0 mi SE 6.9 mph - N/A   Scattered Clouds
12:34 PM 80.6 °F 46.4 °F 30% 30.05 in 10.0 mi SE 4.6 mph - N/A   Scattered Clouds
12:54 PM 80.6 °F 48.2 °F 32% 30.05 in 10.0 mi South 6.9 mph - N/A   Scattered Clouds
1:13 PM 80.6 °F 48.2 °F 32% 30.04 in 10.0 mi NE 4.6 mph - N/A   Mostly Cloudy
1:34 PM 80.6 °F 46.4 °F 30% 30.04 in 10.0 mi SE 6.9 mph - N/A   Mostly Cloudy
1:54 PM 80.6 °F 46.4 °F 30% 30.03 in 10.0 mi ENE 8.1 mph - N/A   Scattered Clouds
2:13 PM 80.6 °F 46.4 °F 30% 30.03 in 10.0 mi Calm Calm - N/A   Scattered Clouds
2:34 PM 80.6 °F 46.4 °F 30% 30.03 in 10.0 mi ESE 5.8 mph - N/A   Scattered Clouds
2:54 PM 82.4 °F 48.2 °F 30% 30.03 in 10.0 mi East 6.9 mph 16.1 mph N/A   Scattered Clouds
3:13 PM 82.4 °F 46.4 °F 28% 30.02 in 10.0 mi ESE 5.8 mph - N/A   Scattered Clouds
3:34 PM 80.6 °F 46.4 °F 30% 30.02 in 10.0 mi Calm Calm - N/A   Scattered Clouds
3:54 PM 82.4 °F 44.6 °F 26% 30.01 in 10.0 mi Calm Calm - N/A   Mostly Cloudy
4:13 PM 82.4 °F 46.4 °F 28% 30.01 in 10.0 mi SE 3.5 mph - N/A   Mostly Cloudy
4:34 PM 82.4 °F 46.4 °F 28% 30.00 in 10.0 mi South 8.1 mph - N/A   Mostly Cloudy
4:54 PM 82.4 °F 46.4 °F 28% 30.00 in 10.0 mi SSE 5.8 mph - N/A   Mostly Cloudy
5:13 PM 80.6 °F 46.4 °F 30% 29.99 in 10.0 mi South 4.6 mph - N/A   Mostly Cloudy
5:34 PM 82.4 °F 46.4 °F 28% 29.99 in 10.0 mi SSE 6.9 mph - N/A   Mostly Cloudy
5:54 PM 82.4 °F 44.6 °F 26% 29.98 in 10.0 mi Calm Calm - N/A   Scattered Clouds
6:13 PM 82.4 °F 44.6 °F 26% 29.98 in 10.0 mi East 5.8 mph - N/A   Clear
6:34 PM 82.4 °F 44.6 °F 26% 29.98 in 10.0 mi SE 4.6 mph - N/A   Clear
6:54 PM 82.4 °F 44.6 °F 26% 29.97 in 10.0 mi South 5.8 mph - N/A   Clear
7:13 PM 80.6 °F 46.4 °F 30% 29.98 in 10.0 mi ESE 6.9 mph - N/A   Clear
7:34 PM 78.8 °F 50.0 °F 36% 29.98 in 10.0 mi East 5.8 mph - N/A   Scattered Clouds
7:54 PM 80.6 °F 50.0 °F 34% 29.98 in 10.0 mi ESE 8.1 mph - N/A   Clear
8:14 PM 78.8 °F 50.0 °F 36% 29.98 in 10.0 mi ESE 8.1 mph - N/A   Clear
8:34 PM 77.0 °F 51.8 °F 41% 29.98 in 10.0 mi ESE 5.8 mph - N/A   Clear
8:54 PM 73.4 °F 53.6 °F 50% 29.98 in 10.0 mi ESE 5.8 mph - N/A   Clear
9:14 PM 71.6 °F 53.6 °F 53% 29.98 in 10.0 mi ESE 4.6 mph - N/A   Clear
9:34 PM 71.6 °F 53.6 °F 53% 29.98 in 10.0 mi East 5.8 mph - N/A   Clear
9:54 PM 69.8 °F 55.4 °F 60% 29.98 in 10.0 mi East 4.6 mph - N/A   Clear
10:14 PM 69.8 °F 53.6 °F 56% 29.98 in 10.0 mi ESE 4.6 mph - N/A   Clear
10:34 PM 69.8 °F 53.6 °F 56% 29.99 in 10.0 mi SE 5.8 mph - N/A   Clear
10:54 PM 69.8 °F 53.6 °F 56% 29.98 in 10.0 mi SE 4.6 mph - N/A   Clear
11:14 PM 71.6 °F 51.8 °F 50% 29.98 in 10.0 mi SSE 6.9 mph - N/A   Clear
11:34 PM 71.6 °F 51.8 °F 50% 29.98 in 10.0 mi SE 6.9 mph - N/A   Clear
11:53 PM 69.8 °F 51.8 °F 53% 29.98 in 10.0 mi SSE 6.9 mph - N/A   Clear